"SCET","ELECTRON CYCLOTRON FREQUENCY","MEASURED FREQUENCY VALUE","ELECTRON NUMBER DENSITY","JOVIGRAPHIC DISTANCE","SYS_III_LONGITUDE","JOVIGRAPHIC MAGNETIC LATITUDE","JSE X","JSE Y","JSE Z","MAGNETIC FIELD CHECK","DATA QUALITY INDEX","MEASURED FREQUENCY","ELECTRON PLASMA FREQUENCY","L=0 FREQUENCY","R=0 FREQUENCY","UPPER HYBRID FREQUENCY","FULL-WIDTH AT HALF-MAXIMUM"
,"[Hz]","[Hz]","[cm-3]","[Rj where 1Rj=71492km]","[Degrees]","[Degrees]","[Rj where 1Rj=71492km]","[Rj where 1Rj=71492km]","[Rj where 1Rj=71492km]","[1 if Yes, 0 if No]",,,"[Hz]","[Hz]","[Hz]","[Hz]","[Hz or -1 Floater]"
1979-075T02:29:32.500,43.408,3474.000,1.497e-01,168.113,349.135,-2.913,-71.801,-151.824,7.495,1,1," p",3474.000,3452.364,3495.772,3474.271,
1979-075T02:29:33.500,43.597,3474.000,1.497e-01,168.114,349.145,-2.913,-71.801,-151.824,7.495,1,1," p",3474.000,3452.270,3495.867,3474.273,
1979-075T02:29:34.500,43.817,3474.000,1.497e-01,168.114,349.155,-2.914,-71.801,-151.825,7.495,1,1," p",3474.000,3452.161,3495.978,3474.276,
1979-075T02:29:35.500,44.080,3456.000,1.481e-01,168.114,349.165,-2.915,-71.801,-151.825,7.495,1,1," p",3456.000,3434.030,3478.110,3456.281,
1979-075T02:29:40.500,43.934,3348.000,1.390e-01,168.115,349.215,-2.920,-71.801,-151.826,7.495,1,1," p",3348.000,3326.105,3370.039,3348.288,
1979-075T02:29:41.500,44.065,3384.000,1.420e-01,168.115,349.225,-2.921,-71.801,-151.826,7.495,1,1," p",3384.000,3362.039,3406.104,3384.287,
1979-075T02:29:42.500,44.541,3348.000,1.390e-01,168.115,349.235,-2.922,-71.801,-151.826,7.495,1,1," p",3348.000,3325.803,3370.344,3348.296,
1979-075T02:29:43.500,45.139,3420.000,1.450e-01,168.115,349.245,-2.923,-71.801,-151.826,7.495,1,1," p",3420.000,3397.505,3442.644,3420.298,
1979-075T02:29:44.500,45.462,3348.000,1.390e-01,168.115,349.256,-2.924,-71.801,-151.826,7.495,1,1," p",3348.000,3325.346,3370.808,3348.309,
1979-075T02:29:45.500,45.725,3348.000,1.390e-01,168.116,349.266,-2.924,-71.801,-151.826,7.495,1,1," p",3348.000,3325.216,3370.941,3348.312,
1979-075T02:29:46.500,45.569,3348.000,1.390e-01,168.116,349.276,-2.925,-71.801,-151.826,7.495,1,1," p",3348.000,3325.293,3370.862,3348.310,
1979-075T02:29:47.500,45.365,3348.000,1.390e-01,168.116,349.286,-2.926,-71.802,-151.827,7.495,1,1," p",3348.000,3325.394,3370.759,3348.307,
1979-075T02:29:48.500,45.061,3348.000,1.390e-01,168.116,349.296,-2.927,-71.802,-151.827,7.495,1,1," p",3348.000,3325.545,3370.606,3348.303,
1979-075T02:29:49.500,44.757,3384.000,1.420e-01,168.116,349.306,-2.928,-71.802,-151.827,7.495,1,1," p",3384.000,3361.696,3406.452,3384.296,
1979-075T02:29:50.500,44.495,3366.000,1.405e-01,168.116,349.316,-2.929,-71.802,-151.827,7.495,1,1," p",3366.000,3343.826,3388.321,3366.294,
1979-075T02:29:51.500,44.292,3384.000,1.420e-01,168.117,349.326,-2.930,-71.802,-151.827,7.495,1,1," p",3384.000,3361.927,3406.219,3384.290,
1979-075T02:29:52.500,44.467,3348.000,1.390e-01,168.117,349.336,-2.931,-71.802,-151.827,7.495,1,1," p",3348.000,3325.840,3370.307,3348.295,
1979-075T02:29:53.500,44.705,3348.000,1.390e-01,168.117,349.346,-2.932,-71.802,-151.827,7.495,1,1," p",3348.000,3325.722,3370.427,3348.298,
1979-075T02:29:54.500,45.172,3366.000,1.405e-01,168.117,349.356,-2.933,-71.802,-151.828,7.495,1,1," p",3366.000,3343.490,3388.662,3366.303,
1979-075T02:29:55.500,45.556,3366.000,1.405e-01,168.117,349.366,-2.934,-71.802,-151.828,7.495,1,1," p",3366.000,3343.299,3388.855,3366.308,
1979-075T02:29:56.500,45.746,3348.000,1.390e-01,168.117,349.376,-2.935,-71.802,-151.828,7.495,1,1," p",3348.000,3325.205,3370.951,3348.312,
1979-075T02:29:57.500,45.941,3384.000,1.420e-01,168.118,349.387,-2.935,-71.802,-151.828,7.495,1,1," p",3384.000,3361.107,3407.048,3384.312,
1979-075T02:29:58.500,46.145,3384.000,1.420e-01,168.118,349.397,-2.936,-71.802,-151.828,7.495,1,1," p",3384.000,3361.006,3407.151,3384.315,
1979-075T02:29:59.500,46.343,3384.000,1.420e-01,168.118,349.407,-2.937,-71.802,-151.828,7.495,1,1," p",3384.000,3360.908,3407.251,3384.317,
1979-075T02:30:00.500,46.532,3384.000,1.420e-01,168.118,349.417,-2.938,-71.802,-151.829,7.495,1,1," p",3384.000,3360.814,3407.346,3384.320,
1979-075T02:30:01.500,46.597,3312.000,1.360e-01,168.118,349.427,-2.939,-71.802,-151.829,7.495,1,1," p",3312.000,3288.783,3335.380,3312.328,
1979-075T02:30:04.500,47.479,3366.000,1.405e-01,168.119,349.457,-2.942,-71.803,-151.829,7.495,1,1," p",3366.000,3342.344,3389.823,3366.335,
1979-075T02:30:05.500,47.290,3348.000,1.390e-01,168.119,349.467,-2.943,-71.803,-151.829,7.495,1,1," p",3348.000,3324.438,3371.729,3348.334,
1979-075T02:30:06.500,46.765,3348.000,1.390e-01,168.119,349.477,-2.944,-71.803,-151.829,7.495,1,1," p",3348.000,3324.699,3371.464,3348.327,
1979-075T02:30:07.500,46.365,3348.000,1.390e-01,168.119,349.487,-2.945,-71.803,-151.830,7.495,1,1," p",3348.000,3324.898,3371.263,3348.321,
1979-075T02:30:08.500,46.000,3348.000,1.390e-01,168.119,349.497,-2.945,-71.803,-151.830,7.495,1,1," p",3348.000,3325.079,3371.079,3348.316,
1979-075T02:30:09.500,45.911,3348.000,1.390e-01,168.119,349.507,-2.946,-71.803,-151.830,7.495,1,1," p",3348.000,3325.123,3371.034,3348.315,
1979-075T02:30:10.500,45.867,3348.000,1.390e-01,168.120,349.517,-2.947,-71.803,-151.830,7.495,1,1," p",3348.000,3325.145,3371.012,3348.314,
1979-075T02:30:11.500,45.481,3366.000,1.405e-01,168.120,349.527,-2.948,-71.803,-151.830,7.495,1,1," p",3366.000,3343.336,3388.817,3366.307,
1979-075T02:30:12.500,45.074,3366.000,1.405e-01,168.120,349.538,-2.949,-71.803,-151.830,7.495,1,1," p",3366.000,3343.538,3388.613,3366.302,
1979-075T02:30:13.500,44.724,3420.000,1.450e-01,168.120,349.548,-2.950,-71.803,-151.831,7.495,1,1," p",3420.000,3397.711,3442.435,3420.292,
1979-075T02:30:14.500,44.483,3348.000,1.390e-01,168.120,349.558,-2.951,-71.803,-151.831,7.495,1,1," p",3348.000,3325.832,3370.315,3348.295,
1979-075T02:30:15.500,45.256,3402.000,1.435e-01,168.120,349.568,-2.952,-71.803,-151.831,7.495,1,1," p",3402.000,3379.447,3424.703,3402.301,
1979-075T02:30:16.500,45.933,3348.000,1.390e-01,168.121,349.578,-2.953,-71.803,-151.831,7.495,1,1," p",3348.000,3325.112,3371.045,3348.315,
1979-075T02:30:17.500,46.167,3348.000,1.390e-01,168.121,349.588,-2.954,-71.803,-151.831,7.495,1,1," p",3348.000,3324.996,3371.163,3348.318,
1979-075T02:30:18.500,46.347,3348.000,1.390e-01,168.121,349.598,-2.955,-71.803,-151.831,7.495,1,1," p",3348.000,3324.907,3371.254,3348.321,
1979-075T02:30:19.500,46.377,3348.000,1.390e-01,168.121,349.608,-2.955,-71.804,-151.831,7.495,1,1," p",3348.000,3324.892,3371.269,3348.321,
1979-075T02:30:20.500,46.548,3348.000,1.390e-01,168.121,349.618,-2.956,-71.804,-151.832,7.495,1,1," p",3348.000,3324.807,3371.355,3348.323,
1979-075T02:30:21.500,47.000,3366.000,1.405e-01,168.121,349.628,-2.957,-71.804,-151.832,7.495,1,1," p",3366.000,3342.582,3389.582,3366.328,
1979-075T02:30:22.500,47.112,3348.000,1.390e-01,168.122,349.638,-2.958,-71.804,-151.832,7.495,1,1," p",3348.000,3324.527,3371.639,3348.332,
1979-075T02:30:23.500,46.747,3366.000,1.405e-01,168.122,349.648,-2.959,-71.804,-151.832,7.495,1,1," p",3366.000,3342.708,3389.455,3366.325,
1979-075T02:30:24.500,46.405,3366.000,1.405e-01,168.122,349.658,-2.960,-71.804,-151.832,7.495,1,1," p",3366.000,3342.877,3389.282,3366.320,
1979-075T02:30:25.500,46.084,3402.000,1.435e-01,168.122,349.668,-2.961,-71.804,-151.832,7.495,1,1," p",3402.000,3379.036,3425.120,3402.312,
1979-075T02:30:30.500,45.523,3348.000,1.390e-01,168.123,349.719,-2.965,-71.804,-151.833,7.496,1,1," p",3348.000,3325.316,3370.839,3348.310,
1979-075T02:30:31.500,45.669,3348.000,1.390e-01,168.123,349.729,-2.966,-71.804,-151.833,7.496,1,1," p",3348.000,3325.243,3370.912,3348.312,
1979-075T02:30:32.500,45.827,3366.000,1.405e-01,168.123,349.739,-2.967,-71.804,-151.833,7.496,1,1," p",3366.000,3343.165,3388.991,3366.312,
1979-075T02:30:33.500,45.987,3384.000,1.420e-01,168.123,349.749,-2.968,-71.804,-151.834,7.496,1,1," p",3384.000,3361.085,3407.072,3384.312,
1979-075T02:30:34.500,46.514,3366.000,1.405e-01,168.124,349.759,-2.969,-71.804,-151.834,7.496,1,1," p",3366.000,3342.823,3389.337,3366.321,
1979-075T02:30:35.500,47.083,3348.000,1.390e-01,168.124,349.769,-2.970,-71.805,-151.834,7.496,1,1," p",3348.000,3324.541,3371.624,3348.331,
1979-075T02:30:36.500,46.825,3402.000,1.435e-01,168.124,349.779,-2.971,-71.805,-151.834,7.496,1,1," p",3402.000,3378.668,3425.493,3402.322,
1979-075T02:30:37.500,46.574,3348.000,1.390e-01,168.124,349.789,-2.972,-71.805,-151.834,7.496,1,1," p",3348.000,3324.794,3371.368,3348.324,
1979-075T02:30:38.500,46.749,3402.000,1.435e-01,168.124,349.799,-2.973,-71.805,-151.834,7.496,1,1," p",3402.000,3378.706,3425.455,3402.321,
1979-075T02:30:39.500,46.918,3366.000,1.405e-01,168.124,349.809,-2.974,-71.805,-151.834,7.496,1,1," p",3366.000,3342.623,3389.541,3366.327,
1979-075T02:30:40.500,47.049,3402.000,1.435e-01,168.125,349.820,-2.975,-71.805,-151.835,7.496,1,1," p",3402.000,3378.557,3425.606,3402.325,
1979-075T02:30:41.500,47.022,3384.000,1.420e-01,168.125,349.830,-2.975,-71.805,-151.835,7.496,1,1," p",3384.000,3360.571,3407.593,3384.327,
1979-075T02:30:42.500,46.424,3348.000,1.390e-01,168.125,349.840,-2.976,-71.805,-151.835,7.496,1,1," p",3348.000,3324.868,3371.292,3348.322,
1979-075T02:30:43.500,46.060,3384.000,1.420e-01,168.125,349.850,-2.977,-71.805,-151.835,7.496,1,1," p",3384.000,3361.048,3407.108,3384.313,
1979-075T02:30:44.500,46.250,3366.000,1.405e-01,168.125,349.860,-2.978,-71.805,-151.835,7.496,1,1," p",3366.000,3342.954,3389.204,3366.318,
1979-075T02:30:45.500,46.291,3366.000,1.405e-01,168.125,349.870,-2.979,-71.805,-151.835,7.496,1,1," p",3366.000,3342.934,3389.225,3366.318,
1979-075T02:30:46.500,46.087,3348.000,1.390e-01,168.126,349.880,-2.980,-71.805,-151.835,7.496,1,1," p",3348.000,3325.036,3371.123,3348.317,
1979-075T02:30:47.500,46.049,3366.000,1.405e-01,168.126,349.890,-2.981,-71.805,-151.836,7.496,1,1," p",3366.000,3343.054,3389.103,3366.315,
1979-075T02:30:48.500,46.210,3348.000,1.390e-01,168.126,349.900,-2.982,-71.805,-151.836,7.496,1,1," p",3348.000,3324.975,3371.185,3348.319,
1979-075T02:30:49.500,46.182,3348.000,1.390e-01,168.126,349.910,-2.983,-71.805,-151.836,7.496,1,1," p",3348.000,3324.989,3371.171,3348.319,
1979-075T02:30:50.500,45.993,3366.000,1.405e-01,168.126,349.920,-2.984,-71.805,-151.836,7.496,1,1," p",3366.000,3343.082,3389.075,3366.314,
1979-075T02:30:51.500,46.064,3366.000,1.405e-01,168.126,349.930,-2.984,-71.806,-151.836,7.496,1,1," p",3366.000,3343.047,3389.111,3366.315,
1979-075T02:30:52.500,46.297,3348.000,1.390e-01,168.126,349.940,-2.985,-71.806,-151.836,7.496,1,1," p",3348.000,3324.932,3371.229,3348.320,
1979-075T02:30:53.500,46.500,3348.000,1.390e-01,168.127,349.950,-2.986,-71.806,-151.837,7.496,1,1," p",3348.000,3324.831,3371.331,3348.323,
1979-075T02:30:54.500,46.690,3402.000,1.435e-01,168.127,349.961,-2.987,-71.806,-151.837,7.496,1,1," p",3402.000,3378.735,3425.425,3402.320,
1979-075T02:30:55.500,47.219,3366.000,1.405e-01,168.127,349.971,-2.988,-71.806,-151.837,7.496,1,1," p",3366.000,3342.473,3389.692,3366.331,
1979-075T02:30:56.500,47.846,3366.000,1.405e-01,168.127,349.981,-2.989,-71.806,-151.837,7.496,1,1," p",3366.000,3342.162,3390.008,3366.340,
1979-075T02:30:57.500,47.449,3348.000,1.390e-01,168.127,349.991,-2.990,-71.806,-151.837,7.496,1,1," p",3348.000,3324.360,3371.809,3348.336,
1979-075T02:30:58.500,46.880,3366.000,1.405e-01,168.127,350.001,-2.991,-71.806,-151.837,7.496,1,1," p",3366.000,3342.642,3389.522,3366.326,
1979-075T02:30:59.500,47.582,3348.000,1.390e-01,168.128,350.011,-2.992,-71.806,-151.837,7.496,1,1," p",3348.000,3324.293,3371.875,3348.338,
1979-075T02:31:00.500,48.359,3366.000,1.405e-01,168.128,350.021,-2.993,-71.806,-151.838,7.496,1,1," p",3366.000,3341.907,3390.266,3366.347,
1979-075T02:31:01.500,48.564,3366.000,1.405e-01,168.128,350.031,-2.993,-71.806,-151.838,7.496,1,1," p",3366.000,3341.806,3390.370,3366.350,
1979-075T02:31:02.500,48.728,3366.000,1.405e-01,168.128,350.041,-2.994,-71.806,-151.838,7.496,1,1," p",3366.000,3341.724,3390.452,3366.353,
1979-075T02:31:03.500,48.524,3366.000,1.405e-01,168.128,350.051,-2.995,-71.806,-151.838,7.496,1,1," p",3366.000,3341.825,3390.349,3366.350,
1979-075T02:31:04.500,48.428,3384.000,1.420e-01,168.128,350.061,-2.996,-71.806,-151.838,7.496,1,1," p",3384.000,3359.873,3408.301,3384.346,
1979-075T02:31:05.500,48.837,3366.000,1.405e-01,168.129,350.071,-2.997,-71.806,-151.838,7.496,1,1," p",3366.000,3341.670,3390.507,3366.354,
1979-075T02:31:06.500,49.144,3402.000,1.435e-01,168.129,350.081,-2.998,-71.806,-151.839,7.496,1,1," p",3402.000,3377.517,3426.661,3402.355,
1979-075T02:31:07.500,49.158,3384.000,1.420e-01,168.129,350.091,-2.999,-71.806,-151.839,7.496,1,1," p",3384.000,3359.510,3408.668,3384.357,
1979-075T02:31:08.500,49.084,3384.000,1.420e-01,168.129,350.102,-3.000,-71.807,-151.839,7.496,1,1," p",3384.000,3359.547,3408.631,3384.356,
1979-075T02:31:09.500,48.837,3366.000,1.405e-01,168.129,350.112,-3.001,-71.807,-151.839,7.496,1,1," p",3366.000,3341.670,3390.507,3366.354,
1979-075T02:31:10.500,48.595,3366.000,1.405e-01,168.129,350.122,-3.002,-71.807,-151.839,7.496,1,1," p",3366.000,3341.790,3390.385,3366.351,
1979-075T02:31:11.500,48.361,3384.000,1.420e-01,168.130,350.132,-3.002,-71.807,-151.839,7.496,1,1," p",3384.000,3359.906,3408.267,3384.345,
1979-075T02:31:12.500,48.099,3402.000,1.435e-01,168.130,350.142,-3.003,-71.807,-151.839,7.496,1,1," p",3402.000,3378.035,3426.135,3402.340,
1979-075T02:31:13.500,47.807,3366.000,1.405e-01,168.130,350.152,-3.004,-71.807,-151.840,7.496,1,1," p",3366.000,3342.181,3389.988,3366.340,
1979-075T02:31:17.500,45.106,3474.000,1.497e-01,168.131,350.192,-3.008,-71.807,-151.840,7.496,1,1," p",3474.000,3451.520,3496.626,3474.293,
1979-075T02:31:18.500,45.643,3402.000,1.435e-01,168.131,350.202,-3.009,-71.807,-151.840,7.496,1,1," p",3402.000,3379.255,3424.898,3402.306,
1979-075T02:31:19.500,46.445,3402.000,1.435e-01,168.131,350.212,-3.010,-71.807,-151.840,7.496,1,1," p",3402.000,3378.857,3425.302,3402.317,
1979-075T02:31:20.500,46.842,3384.000,1.420e-01,168.131,350.222,-3.010,-71.807,-151.841,7.496,1,1," p",3384.000,3360.660,3407.502,3384.324,
1979-075T02:31:21.500,47.148,3420.000,1.450e-01,168.131,350.232,-3.011,-71.807,-151.841,7.496,1,1," p",3420.000,3396.507,3443.655,3420.325,
1979-075T02:31:22.500,47.402,3384.000,1.420e-01,168.131,350.243,-3.012,-71.807,-151.841,7.496,1,1," p",3384.000,3360.382,3407.784,3384.332,
1979-075T02:31:23.500,47.650,3384.000,1.420e-01,168.132,350.253,-3.013,-71.807,-151.841,7.496,1,1," p",3384.000,3360.259,3407.909,3384.335,
1979-075T02:31:24.500,47.514,3366.000,1.405e-01,168.132,350.263,-3.014,-71.808,-151.841,7.496,1,1," p",3366.000,3342.327,3389.841,3366.335,
1979-075T02:31:25.500,47.383,3366.000,1.405e-01,168.132,350.273,-3.015,-71.808,-151.841,7.496,1,1," p",3366.000,3342.392,3389.775,3366.333,
1979-075T02:31:26.500,47.499,3402.000,1.435e-01,168.132,350.283,-3.016,-71.808,-151.842,7.496,1,1," p",3402.000,3378.333,3425.832,3402.332,
1979-075T02:31:27.500,47.608,3366.000,1.405e-01,168.132,350.293,-3.017,-71.808,-151.842,7.496,1,1," p",3366.000,3342.280,3389.888,3366.337,
1979-075T02:31:28.500,47.666,3366.000,1.405e-01,168.132,350.303,-3.018,-71.808,-151.842,7.496,1,1," p",3366.000,3342.251,3389.917,3366.337,
1979-075T02:31:29.500,47.734,3366.000,1.405e-01,168.133,350.313,-3.018,-71.808,-151.842,7.496,1,1," p",3366.000,3342.218,3389.952,3366.338,
1979-075T02:31:30.500,47.836,3366.000,1.405e-01,168.133,350.323,-3.019,-71.808,-151.842,7.496,1,1," p",3366.000,3342.167,3390.003,3366.340,
1979-075T02:31:31.500,48.055,3366.000,1.405e-01,168.133,350.333,-3.020,-71.808,-151.842,7.496,1,1," p",3366.000,3342.058,3390.113,3366.343,
1979-075T02:31:32.500,48.551,3366.000,1.405e-01,168.133,350.343,-3.021,-71.808,-151.842,7.496,1,1," p",3366.000,3341.812,3390.363,3366.350,
1979-075T02:31:33.500,48.975,3366.000,1.405e-01,168.133,350.353,-3.022,-71.808,-151.843,7.496,1,1," p",3366.000,3341.602,3390.577,3366.356,
1979-075T02:31:34.500,49.282,3384.000,1.420e-01,168.133,350.363,-3.023,-71.808,-151.843,7.496,1,1," p",3384.000,3359.449,3408.731,3384.359,
1979-075T02:31:35.500,48.895,3402.000,1.435e-01,168.134,350.373,-3.024,-71.808,-151.843,7.496,1,1," p",3402.000,3377.640,3426.535,3402.351,
1979-075T02:31:36.500,47.684,3384.000,1.420e-01,168.134,350.384,-3.025,-71.808,-151.843,7.496,1,1," p",3384.000,3360.242,3407.926,3384.336,
1979-075T02:31:37.500,46.889,3420.000,1.450e-01,168.134,350.394,-3.026,-71.808,-151.843,7.496,1,1," p",3420.000,3396.636,3443.525,3420.322,
1979-075T02:31:40.500,45.930,3366.000,1.405e-01,168.134,350.424,-3.028,-71.809,-151.844,7.496,1,1," p",3366.000,3343.113,3389.043,3366.313,
1979-075T02:31:41.500,45.539,3420.000,1.450e-01,168.134,350.434,-3.029,-71.809,-151.844,7.496,1,1," p",3420.000,3397.306,3442.845,3420.303,
1979-075T02:31:42.500,45.072,3402.000,1.435e-01,168.135,350.444,-3.030,-71.809,-151.844,7.496,1,1," p",3402.000,3379.539,3424.611,3402.299,
1979-075T02:31:43.500,44.979,3366.000,1.405e-01,168.135,350.454,-3.031,-71.809,-151.844,7.496,1,1," p",3366.000,3343.586,3388.565,3366.301,
1979-075T02:31:44.500,44.994,3366.000,1.405e-01,168.135,350.464,-3.032,-71.809,-151.844,7.496,1,1," p",3366.000,3343.578,3388.572,3366.301,
1979-075T02:31:45.500,44.896,3366.000,1.405e-01,168.135,350.474,-3.033,-71.809,-151.844,7.496,1,1," p",3366.000,3343.627,3388.523,3366.299,
1979-075T02:31:46.500,44.779,3366.000,1.405e-01,168.135,350.484,-3.034,-71.809,-151.845,7.496,1,1," p",3366.000,3343.685,3388.464,3366.298,
1979-075T02:31:47.500,44.868,3384.000,1.420e-01,168.135,350.494,-3.034,-71.809,-151.845,7.496,1,1," p",3384.000,3361.640,3406.508,3384.297,
1979-075T02:31:48.500,44.966,3366.000,1.405e-01,168.136,350.504,-3.035,-71.809,-151.845,7.496,1,1," p",3366.000,3343.592,3388.558,3366.300,
1979-075T02:31:49.500,44.849,3420.000,1.450e-01,168.136,350.514,-3.036,-71.809,-151.845,7.496,1,1," p",3420.000,3397.649,3442.498,3420.294,
1979-075T02:31:50.500,44.752,3366.000,1.405e-01,168.136,350.525,-3.037,-71.809,-151.845,7.496,1,1," p",3366.000,3343.698,3388.450,3366.297,
1979-075T02:31:51.500,44.840,3402.000,1.435e-01,168.136,350.535,-3.038,-71.809,-151.845,7.496,1,1," p",3402.000,3379.654,3424.494,3402.295,
1979-075T02:31:52.500,44.866,3366.000,1.405e-01,168.136,350.545,-3.039,-71.809,-151.845,7.496,1,1," p",3366.000,3343.642,3388.508,3366.299,
1979-075T02:31:53.500,44.603,3402.000,1.435e-01,168.136,350.555,-3.040,-71.809,-151.846,7.496,1,1," p",3402.000,3379.771,3424.375,3402.292,
1979-075T02:31:54.500,44.427,3366.000,1.405e-01,168.137,350.565,-3.041,-71.809,-151.846,7.496,1,1," p",3366.000,3343.860,3388.287,3366.293,
1979-075T02:31:55.500,44.500,3420.000,1.450e-01,168.137,350.575,-3.042,-71.809,-151.846,7.496,1,1," p",3420.000,3397.822,3442.322,3420.290,
1979-075T02:31:56.500,44.509,3384.000,1.420e-01,168.137,350.585,-3.042,-71.810,-151.846,7.496,1,1," p",3384.000,3361.819,3406.328,3384.293,
1979-075T02:31:57.500,44.392,3366.000,1.405e-01,168.137,350.595,-3.043,-71.810,-151.846,7.496,1,1," p",3366.000,3343.877,3388.269,3366.293,
1979-075T02:31:58.500,44.999,3366.000,1.405e-01,168.137,350.605,-3.044,-71.810,-151.846,7.496,1,1," p",3366.000,3343.576,3388.575,3366.301,
1979-075T02:31:59.500,46.618,3366.000,1.405e-01,168.137,350.615,-3.045,-71.810,-151.847,7.496,1,1," p",3366.000,3342.772,3389.390,3366.323,
1979-075T02:32:00.500,47.809,3438.000,1.466e-01,168.138,350.625,-3.046,-71.810,-151.847,7.496,1,1," p",3438.000,3414.179,3461.988,3438.333,
1979-075T02:32:01.500,48.567,3474.000,1.497e-01,168.138,350.635,-3.047,-71.810,-151.847,7.496,1,1," p",3474.000,3449.801,3498.368,3474.339,
1979-075T02:32:04.500,45.609,3438.000,1.466e-01,168.138,350.666,-3.050,-71.810,-151.847,7.496,1,1," p",3438.000,3415.271,3460.880,3438.302,
1979-075T02:32:05.500,44.880,3438.000,1.466e-01,168.138,350.676,-3.050,-71.810,-151.847,7.496,1,1," p",3438.000,3415.633,3460.513,3438.293,
1979-075T02:32:06.500,44.667,3438.000,1.466e-01,168.139,350.686,-3.051,-71.810,-151.848,7.496,1,1," p",3438.000,3415.739,3460.406,3438.290,
1979-075T02:32:07.500,44.637,3438.000,1.466e-01,168.139,350.696,-3.052,-71.810,-151.848,7.496,1,1," p",3438.000,3415.754,3460.391,3438.290,
1979-075T02:32:08.500,44.954,3456.000,1.481e-01,168.139,350.706,-3.053,-71.810,-151.848,7.496,1,1," p",3456.000,3433.596,3478.550,3456.292,
1979-075T02:32:09.500,45.347,3438.000,1.466e-01,168.139,350.716,-3.054,-71.810,-151.848,7.496,1,1," p",3438.000,3415.401,3460.748,3438.299,
1979-075T02:32:10.500,45.218,3438.000,1.466e-01,168.139,350.726,-3.055,-71.810,-151.848,7.496,1,1," p",3438.000,3415.465,3460.683,3438.297,
1979-075T02:32:11.500,45.028,3438.000,1.466e-01,168.139,350.736,-3.056,-71.810,-151.848,7.496,1,1," p",3438.000,3415.560,3460.588,3438.295,
1979-075T02:32:12.500,44.753,3438.000,1.466e-01,168.140,350.746,-3.057,-71.810,-151.849,7.496,1,1," p",3438.000,3415.696,3460.449,3438.291,
1979-075T02:32:13.500,44.490,3456.000,1.481e-01,168.140,350.756,-3.057,-71.811,-151.849,7.496,1,1," p",3456.000,3433.827,3478.317,3456.286,
1979-075T02:32:14.500,44.446,3474.000,1.497e-01,168.140,350.766,-3.058,-71.811,-151.849,7.496,1,1," p",3474.000,3451.848,3496.294,3474.284,
1979-075T02:32:15.500,44.578,3474.000,1.497e-01,168.140,350.776,-3.059,-71.811,-151.849,7.496,1,1," p",3474.000,3451.782,3496.361,3474.286,
1979-075T02:32:16.500,45.817,3438.000,1.466e-01,168.140,350.786,-3.060,-71.811,-151.849,7.496,1,1," p",3438.000,3415.168,3460.985,3438.305,
1979-075T02:32:17.500,46.848,3438.000,1.466e-01,168.140,350.796,-3.061,-71.811,-151.849,7.496,1,1," p",3438.000,3414.656,3461.504,3438.319,
1979-075T02:32:18.500,47.125,3456.000,1.481e-01,168.141,350.807,-3.062,-71.811,-151.849,7.496,1,1," p",3456.000,3432.518,3479.643,3456.321,
1979-075T02:32:19.500,47.064,3438.000,1.466e-01,168.141,350.817,-3.063,-71.811,-151.850,7.496,1,1," p",3438.000,3414.549,3461.613,3438.322,
1979-075T02:32:20.500,46.204,3438.000,1.466e-01,168.141,350.827,-3.064,-71.811,-151.850,7.496,1,1," p",3438.000,3414.976,3461.180,3438.311,
1979-075T02:32:21.500,45.723,3474.000,1.497e-01,168.141,350.837,-3.064,-71.811,-151.850,7.496,1,1," p",3474.000,3451.214,3496.937,3474.301,
1979-075T02:32:22.500,45.869,3438.000,1.466e-01,168.141,350.847,-3.065,-71.811,-151.850,7.496,1,1," p",3438.000,3415.142,3461.011,3438.306,
1979-075T02:32:23.500,45.521,3438.000,1.466e-01,168.141,350.857,-3.066,-71.811,-151.850,7.496,1,1," p",3438.000,3415.315,3460.836,3438.301,
1979-075T02:32:24.500,44.588,3438.000,1.466e-01,168.142,350.867,-3.067,-71.811,-151.850,7.496,1,1," p",3438.000,3415.778,3460.366,3438.289,
1979-075T02:32:25.500,43.890,3438.000,1.466e-01,168.142,350.877,-3.068,-71.811,-151.850,7.496,1,1," p",3438.000,3416.125,3460.015,3438.280,
1979-075T02:32:29.500,43.926,3492.000,1.512e-01,168.142,350.917,-3.071,-71.812,-151.851,7.496,1,1," p",3492.000,3470.106,3514.032,3492.276,
1979-075T02:32:30.500,44.641,3474.000,1.497e-01,168.143,350.927,-3.072,-71.812,-151.851,7.496,1,1," p",3474.000,3451.751,3496.392,3474.287,
1979-075T02:32:31.500,44.653,3474.000,1.497e-01,168.143,350.937,-3.073,-71.812,-151.851,7.496,1,1," p",3474.000,3451.745,3496.398,3474.287,
1979-075T02:32:32.500,44.463,3456.000,1.481e-01,168.143,350.948,-3.074,-71.812,-151.852,7.496,1,1," p",3456.000,3433.840,3478.303,3456.286,
1979-075T02:32:33.500,44.511,3438.000,1.466e-01,168.143,350.958,-3.075,-71.812,-151.852,7.496,1,1," p",3438.000,3415.817,3460.328,3438.288,
1979-075T02:32:34.500,44.598,3438.000,1.466e-01,168.143,350.968,-3.076,-71.812,-151.852,7.496,1,1," p",3438.000,3415.773,3460.371,3438.289,
1979-075T02:32:35.500,,3438.000,1.466e-01,168.143,350.978,-3.077,-71.812,-151.852,7.496,0,1," p",3438.000,,,,
1979-075T02:32:36.500,,3438.000,1.466e-01,168.143,350.988,-3.078,-71.812,-151.852,7.496,0,1," p",3438.000,,,,
1979-075T05:34:20.500,38.336,3618.000,1.623e-01,169.924,100.805,3.287,-72.484,-153.502,7.578,1,1," p",3618.000,3598.883,3637.219,3618.203,